[[{"header":{"parameterUnit":"m.s-1","parameterCategory":1,"la1":30.2991,"la2":30.254,"lo1":-89.0895,"lo2":-89.0444,"dy":0.0017,"dx":0.0017,"nx":28,"ny":28,"refTime":"2024-07-09T09:00:00:Z","depth":0,"parameterNumber":2,"parameterNumberName":"U-component_of_WINDS"},"data":[0,0,0,0,0,0,0,0,0,0,0,0,0,0,0,0,0,0,0,0,0,0,0,0,0,0,0,0,0,0,0,0,0,0,0,0,0,0,0,0,0,0,0,0,0,0,0,0,0,0,0,0,0,0,0,0,0,0,5.4162,5.4163,0,5.427,5.4271,5.4272,5.4201,5.4197,5.4194,5.4191,5.4301,5.4307,5.4312,0,0,0,0,0,0,0,0,0,0,0,0,0,5.3891,5.3896,5.4162,5.4163,5.4164,5.427,5.4271,5.4273,5.4201,5.4197,5.4193,5.4189,5.4299,5.4306,5.4313,0,0,0,0,0,0,0,0,0,0,0,0,0,5.4005,5.3898,5.4161,5.4141,5.4141,5.4269,5.4271,5.4273,5.4202,5.4197,5.4192,5.4187,5.4296,5.4305,5.4314,5.4468,0,0,5.4341,5.4345,0,0,0,0,0,0,0,0,5.3998,5.4015,5.4143,5.4143,5.4142,5.4217,5.4216,5.4338,5.4203,5.4179,5.4191,5.4185,5.4277,5.4287,5.4318,5.4473,5.4478,5.4342,5.4348,5.4352,5.4354,0,0,0,0,0,0,0,5.3991,5.401,5.4204,5.4145,5.4145,5.4126,5.4137,5.4239,5.4254,5.418,5.4176,5.4189,5.4276,5.431,5.432,5.448,5.4342,5.435,5.4355,5.4359,5.4763,5.4768,0,0,0,0,0,0,5.3985,5.4004,5.4201,5.4208,5.4057,5.4135,5.4147,5.4198,5.4253,5.4256,5.4193,5.4186,5.4297,5.431,5.4324,5.4505,5.4351,5.436,5.4365,5.4758,5.4764,5.477,0,0,0,0,0,0,5.3979,5.4003,5.4197,5.4104,5.4128,5.4145,5.4203,5.4203,5.4236,5.4263,5.4265,5.4225,5.4293,5.4311,5.4432,5.4507,5.4364,5.4372,5.4752,5.476,5.4767,5.487,0,0,0,0,0,0,5.3972,5.4001,5.4061,5.4106,5.4133,5.4304,5.4207,5.4208,5.4252,5.4243,5.4293,5.4297,5.4291,5.4419,5.4441,5.4517,5.4379,5.4745,5.4755,5.4765,5.486,5.488,5.4898,0,0,0,0,0,5.3962,5.4086,5.4064,5.4088,5.4208,5.4309,5.4324,5.4315,5.4259,5.4318,5.4334,5.4295,5.4497,5.4432,5.4456,5.4536,5.474,5.4752,5.4764,5.4851,5.4876,5.4898,0,0,0,0,0,0,5.4049,5.4091,5.4068,5.421,5.4256,5.4296,5.437,5.4342,5.4405,5.4394,5.4379,5.4391,5.4517,5.4539,5.4467,5.4687,5.4609,5.4627,5.4667,5.4691,5.471,5.4701,5.4387,0,0,0,0,0,5.4085,5.4164,5.4197,5.4319,5.4343,5.4353,5.4397,5.4386,5.4433,5.4452,5.4477,5.4524,5.4597,5.4646,5.4716,5.4864,5.4872,5.4931,5.495,5.4965,5.4979,5.5056,5.5081,5.481,5.4809,5.4809,0,0,5.4159,5.4192,5.4243,5.4337,5.4371,5.4452,5.437,5.446,5.4519,5.4466,5.458,5.4601,5.4652,5.4786,5.4847,5.4809,5.5057,5.4981,5.4993,5.4999,5.5071,5.5097,5.5119,5.4818,5.4816,5.4815,0,0,5.4335,5.4369,5.4473,5.4509,5.4562,5.4568,5.4593,5.4638,5.4649,5.4764,5.4725,5.4795,5.4923,5.496,5.4995,5.5185,5.515,5.5208,5.5306,5.5381,5.5403,5.5421,5.5485,5.5509,5.5223,5.5223,5.5223,0,5.442,5.4541,5.453,5.4622,5.4663,5.4619,5.4723,5.4759,5.4832,5.4861,5.4818,5.4975,5.5007,5.5147,5.5193,5.5225,5.5251,5.52,5.5401,5.5419,5.5437,5.5497,5.5522,5.5229,5.5228,5.5228,5.5227,0,5.4641,5.4726,5.4803,5.4874,5.4925,5.5022,5.5025,5.5078,5.5063,5.5072,5.5189,5.5225,5.53,5.5333,5.532,5.5472,5.5446,5.5402,5.5323,5.5469,5.5526,5.5549,5.5238,5.5236,5.5234,5.5233,0,0,5.4873,5.4936,5.4965,5.4995,5.505,5.5114,5.521,5.5282,5.5326,5.5378,5.5456,5.5564,5.5524,5.5564,5.5555,5.5621,5.5764,5.5569,5.557,5.56,5.5929,5.5959,5.5986,5.5743,5.5747,5.5751,5.5924,0,5.5049,5.5214,5.5207,5.5361,5.5437,5.5396,5.5479,5.5521,5.5533,5.5598,5.5611,5.5687,5.563,5.5653,5.5717,5.5733,5.5829,5.5721,5.5812,5.5815,5.5797,5.6017,5.6049,5.621,5.5946,5.595,5.5953,0,5.5276,5.5335,5.5496,5.5538,5.5569,5.5644,5.5708,5.5772,5.5819,5.5822,5.5867,5.5847,5.5941,5.5863,5.5991,5.5918,5.5955,5.5968,5.5974,5.5979,5.589,5.6024,5.6262,5.6285,5.5988,5.5986,5.5983,0,5.5424,5.5544,5.5655,5.5683,5.5735,5.5788,5.5812,5.5853,5.5897,5.5954,5.5981,5.6049,5.6085,5.6137,5.6135,5.6078,5.6264,5.6186,5.6268,5.6268,5.6306,5.6303,5.6549,5.6337,5.6336,5.6336,5.6335,0,5.5619,5.5719,5.5722,5.579,5.5899,5.589,5.5999,5.6017,5.6055,5.6124,5.6095,5.6161,5.6155,5.6222,5.6221,5.6325,5.6343,5.6347,5.6345,5.6348,5.6347,5.6369,5.6356,5.6342,5.6341,5.634,5.6338,0,5.5802,5.5808,5.5926,5.5966,5.5978,5.6057,5.609,5.6154,5.6163,5.6252,5.6272,5.6287,5.6363,5.6367,5.6456,5.6455,5.6581,5.6568,5.6565,5.6561,5.6641,5.6632,5.6908,5.6942,5.6711,5.6713,5.6715,0,5.5924,5.5999,5.6046,5.6091,5.6118,5.6191,5.6234,5.6228,5.6275,5.6332,5.6389,5.6463,5.6521,5.6645,5.6663,5.673,5.6716,5.6808,5.6726,5.6725,5.6713,5.6707,5.6713,5.6823,5.6826,5.6828,5.6829,0,5.6139,5.6138,5.6202,5.6267,5.632,5.6372,5.6419,5.6457,5.6457,5.651,5.6588,5.6633,5.6723,5.6796,5.6861,5.6884,5.6856,5.6856,5.6877,5.6879,5.6872,5.6873,5.6604,5.6849,5.6847,5.6845,5.6844,5.6843,5.6292,5.6356,5.6398,5.647,5.6505,5.655,5.6611,5.6628,5.6692,5.6764,5.6757,5.6843,5.6885,5.697,5.6999,5.7065,5.7033,5.7066,5.7073,5.708,5.7087,5.6865,5.7077,5.7077,5.7076,5.7076,5.7076,0,5.6501,5.6527,5.6593,5.666,5.6716,5.6686,5.6737,5.6785,5.6861,5.6903,5.6961,5.7049,5.7119,5.7143,5.721,5.7259,5.7247,5.7276,5.7271,5.7276,5.7114,5.7086,5.7284,5.7284,5.7284,5.7284,5.7284,5.7284,5.6617,5.6722,5.6726,5.6848,5.6872,5.6955,5.6986,5.7027,5.706,5.716,5.7217,5.7233,5.7267,5.7337,5.7399,5.7404,5.7429,5.7462,5.7462,5.7309,5.7288,5.7268,5.7241,5.7469,5.7469,5.7618,5.762,5.7621]},{"header":{"parameterUnit":"m.s-1","parameterCategory":1,"la1":30.2991,"la2":30.254,"lo1":-89.0895,"lo2":-89.0444,"dy":0.0017,"dx":0.0017,"nx":28,"ny":28,"refTime":"2024-07-09T09:00:00:Z","depth":0,"parameterNumber":3,"parameterNumberName":"V-component_of_WINDS"},"data":[0,0,0,0,0,0,0,0,0,0,0,0,0,0,0,0,0,0,0,0,0,0,0,0,0,0,0,0,0,0,0,0,0,0,0,0,0,0,0,0,0,0,0,0,0,0,0,0,0,0,0,0,0,0,0,0,0,0,5.6493,5.6494,0,5.6623,5.6624,5.6625,5.6607,5.6605,5.6603,5.66,5.6728,5.6733,5.6739,0,0,0,0,0,0,0,0,0,0,0,0,0,5.6222,5.6227,5.6492,5.6494,5.6496,5.6622,5.6624,5.6626,5.6607,5.6605,5.6602,5.6599,5.6726,5.6733,5.6739,0,0,0,0,0,0,0,0,0,0,0,0,0,5.6344,5.6229,5.6492,5.6502,5.6504,5.6622,5.6624,5.6626,5.6608,5.6604,5.6601,5.6598,5.6724,5.6732,5.674,5.6855,0,0,5.6765,5.6769,0,0,0,0,0,0,0,0,5.6337,5.6354,5.6499,5.6501,5.6504,5.6595,5.6575,5.6703,5.6609,5.6568,5.66,5.6597,5.6686,5.6697,5.6729,5.6861,5.6867,5.6766,5.6771,5.6774,5.6776,0,0,0,0,0,0,0,5.6329,5.6349,5.6544,5.6501,5.6504,5.6498,5.6511,5.66,5.6644,5.6571,5.657,5.6586,5.6687,5.6721,5.6731,5.6868,5.6766,5.6773,5.6778,5.6781,5.7098,5.7102,0,0,0,0,0,0,5.6319,5.6342,5.654,5.6548,5.6411,5.6505,5.6521,5.6569,5.6643,5.6651,5.6589,5.6585,5.6709,5.6722,5.6736,5.6873,5.6774,5.6782,5.6786,5.7095,5.7099,5.7103,0,0,0,0,0,0,5.6313,5.6337,5.6534,5.6445,5.6469,5.6513,5.6568,5.6573,5.6607,5.6656,5.6663,5.6616,5.6707,5.6724,5.6825,5.6877,5.6785,5.6793,5.7091,5.7096,5.7101,5.7149,0,0,0,0,0,0,5.6305,5.6335,5.638,5.6446,5.6474,5.6624,5.6571,5.6578,5.6622,5.6618,5.6683,5.6691,5.6705,5.6813,5.6833,5.6887,5.6799,5.7086,5.7093,5.7099,5.7143,5.7156,5.7166,0,0,0,0,0,5.6296,5.6388,5.6383,5.6407,5.6533,5.6627,5.6643,5.6659,5.6626,5.6671,5.6702,5.6689,5.6869,5.6824,5.6846,5.6903,5.7083,5.7091,5.7099,5.7138,5.7153,5.7166,0,0,0,0,0,0,5.6327,5.6397,5.6392,5.6509,5.6562,5.6624,5.6681,5.6675,5.6738,5.6731,5.6747,5.6762,5.6864,5.6894,5.6842,5.7016,5.6971,5.6984,5.6993,5.7008,5.7019,5.7009,5.6806,0,0,0,0,0,5.6347,5.642,5.6477,5.6574,5.6602,5.6637,5.6679,5.6687,5.6742,5.6764,5.6802,5.6855,5.6922,5.6967,5.7033,5.7148,5.716,5.7197,5.7209,5.7218,5.7228,5.7288,5.7305,5.7129,5.7129,5.7129,0,0,5.639,5.6438,5.6482,5.6582,5.6624,5.6696,5.6656,5.6735,5.6788,5.6775,5.6872,5.6902,5.6962,5.707,5.7119,5.7097,5.728,5.7228,5.7235,5.7241,5.7298,5.7315,5.733,5.7135,5.7134,5.7133,0,0,5.6505,5.655,5.6634,5.6678,5.6742,5.6765,5.6785,5.6848,5.6867,5.6966,5.6957,5.702,5.7137,5.7179,5.7216,5.7345,5.7334,5.7366,5.7425,5.7483,5.7497,5.751,5.7553,5.7568,5.7376,5.7376,5.7377,0,5.6549,5.666,5.6678,5.6758,5.68,5.6794,5.6878,5.6919,5.7001,5.7029,5.7005,5.7151,5.7191,5.7307,5.7338,5.7369,5.7391,5.7358,5.7494,5.7507,5.7518,5.756,5.7576,5.738,5.7379,5.7379,5.7379,0,5.671,5.6787,5.6847,5.6928,5.6977,5.7059,5.7087,5.7135,5.7139,5.7163,5.7261,5.7309,5.7383,5.7411,5.7415,5.7527,5.7512,5.7491,5.7445,5.7538,5.7577,5.7593,5.7384,5.7383,5.7382,5.7381,0,0,5.6847,5.6937,5.6958,5.6993,5.7064,5.7123,5.7203,5.7276,5.7316,5.7372,5.7438,5.7537,5.7518,5.7559,5.7568,5.762,5.7715,5.7592,5.7593,5.7611,5.7838,5.7852,5.787,5.7709,5.7712,5.7715,5.7832,0,5.6966,5.711,5.7128,5.7254,5.7323,5.7318,5.7387,5.7436,5.7461,5.7522,5.7548,5.7617,5.7588,5.7613,5.7664,5.7693,5.7761,5.7685,5.7767,5.777,5.775,5.7891,5.7906,5.8015,5.7848,5.785,5.7852,0,5.7125,5.7187,5.732,5.7379,5.7409,5.7472,5.7539,5.7598,5.7653,5.7667,5.7713,5.7715,5.7795,5.7748,5.7856,5.7804,5.7839,5.7858,5.7863,5.7869,5.7815,5.7898,5.805,5.8065,5.7877,5.7875,5.7873,0,5.7208,5.7325,5.7419,5.745,5.7522,5.7565,5.7597,5.7649,5.7692,5.775,5.7777,5.7844,5.788,5.7931,5.7949,5.7913,5.8056,5.8011,5.8067,5.8067,5.8096,5.8093,5.8252,5.8122,5.8122,5.8122,5.8121,0,5.7338,5.7419,5.7457,5.7515,5.7605,5.7624,5.7711,5.7741,5.7787,5.7848,5.7848,5.7905,5.7927,5.7987,5.8002,5.8088,5.8105,5.8116,5.8119,5.8115,5.8113,5.8136,5.8128,5.8126,5.8125,5.8124,5.8124,0,5.7445,5.7474,5.7576,5.7636,5.7653,5.7716,5.7766,5.7821,5.7845,5.7923,5.7942,5.7979,5.8049,5.8074,5.8159,5.8169,5.8268,5.8265,5.825,5.8249,5.8303,5.8297,5.8481,5.8505,5.8362,5.8363,5.8364,0,5.7525,5.7587,5.7654,5.7696,5.7729,5.7797,5.784,5.7861,5.7905,5.7972,5.8017,5.8088,5.8145,5.8258,5.8291,5.8355,5.8352,5.8413,5.8362,5.8355,5.835,5.8345,5.835,5.8421,5.8423,5.8424,5.8425,0,5.7662,5.7673,5.7737,5.7805,5.7857,5.7911,5.7964,5.7997,5.8025,5.8075,5.8148,5.8193,5.828,5.8349,5.8415,5.8444,5.8438,5.8441,5.8457,5.8452,5.8439,5.8444,5.8272,5.8436,5.8435,5.8434,5.8433,5.8433,5.7756,5.781,5.7865,5.7935,5.7977,5.8026,5.8079,5.811,5.8172,5.8245,5.8254,5.8331,5.8382,5.847,5.8503,5.8563,5.8546,5.8569,5.8575,5.858,5.8583,5.8432,5.8575,5.8575,5.8575,5.8574,5.8574,0,5.7891,5.7926,5.799,5.8064,5.8118,5.811,5.8167,5.8213,5.8282,5.8331,5.8387,5.8469,5.8536,5.8574,5.864,5.868,5.8679,5.8696,5.8692,5.8699,5.8596,5.8574,5.8696,5.8696,5.8696,5.8696,5.8696,5.8696,5.7967,5.8057,5.8075,5.8185,5.8219,5.8296,5.8329,5.8373,5.8412,5.8505,5.856,5.8586,5.863,5.8699,5.8758,5.8768,5.879,5.8809,5.8817,5.8719,5.8706,5.8694,5.8674,5.8815,5.8815,5.8914,5.8915,5.8916]}]]